Regional Weather Roundup
Issued by NWS

Home | Current Version | Previous Version | Text Only | Print | Product List | Glossary On
Versions: 1 2 3 4 5 6 7 8 9 10 11 12 13 14 15 16 17 18 19 20 21 22 23 24 25 26 27 28 29 30 31 32 33 34 35 36 37 38 39 40 41 42 43 44 45 46 47 48 49 50
000
ASUS44 KLUB 280410
RWRTX
WEST TEXAS WEATHER ROUNDUP
NATIONAL WEATHER SERVICE LUBBOCK TX
1000 PM CST SAT DEC 27 2014

NOTE: "FAIR" INDICATES FEW OR NO CLOUDS BELOW 12,000 FEET WITH NO
SIGNIFICANT WEATHER AND/OR OBSTRUCTIONS TO VISIBILITY.

TXZ004-006>008-010-012-014-016-OKZ002-280500-
TEXAS PANHANDLE/OKLAHOMA PANHANDLE

CITY           SKY/WX    TMP DP  RH WIND       PRES   REMARKS
AMARILLO       CLEAR     21  14  74 W5        30.24S WCI  15
BORGER         CLEAR     25  12  58 W3        30.27R
CANADIAN       CLEAR     19  14  80 SW3       30.28R
DALHART        CLEAR     20  15  81 SW8       30.22S WCI  10
DUMAS          CLEAR     17  14  86 W7        30.23F WCI   8
GUYMON         CLEAR     20  13  74 SW6       30.23S WCI  12
HEREFORD       CLEAR     19  15  86 W3        30.24S
PAMPA          CLEAR     21  11  65 CALM      30.25S
PERRYTON       CLEAR     19  12  74 SW7       30.25S WCI   9
$$

TXZ026-029-035-045-048-280500-
SOUTHERN PANHANDLE/SOUTH PLAINS/ROLLING PLAINS

CITY           SKY/WX    TMP DP  RH WIND       PRES   REMARKS
CHILDRESS      CLEAR     29  18  63 CALM      30.32R
SEMINOLE       PTCLDY    29  25  86 CALM      30.29S
LUBBOCK        PTCLDY    25  20  81 CALM      30.27R
PLAINVIEW      CLEAR     21  14  75 CALM      30.24S
SNYDER         CLEAR     30  21  69 E5        30.31S WCI  25
$$

TXZ052-054-060>062-072-078-127-140-154-169-280500-
PERMIAN BASIN/CONCHO VALLEY/BIG COUNTRY/EDWARDS PLATEAU

CITY           SKY/WX    TMP DP  RH WIND       PRES   REMARKS
ABILENE        CLOUDY    33  25  72 N5        30.32S WCI  29
BIG SPRING     CLOUDY    33  23  66 CALM      30.32F
BRADY          MIX PCPN  36  27  69 N14       30.27S WCI  27
BROWNWOOD      CLOUDY    34  25  69 N9        30.32S WCI  26
JUNCTION       CLOUDY    37  29  72 N8        30.26S WCI  31
MIDLAND        CLOUDY    34  27  75 CALM      30.30S
ODESSA         CLOUDY    32  27  81 NE3       30.30S
SAN ANGELO     MOCLDY    35  26  69 N9        30.30F WCI  28
SONORA         CLOUDY    36  27  69 N10       30.32R WCI  28
SWEETWATER     CLEAR     31  24  74 N3        30.33F
WINK           MOCLDY    34  29  82 CALM      30.30S
$$

TXZ055-058-074-075-080-082-280500-
FAR WEST/SOUTHWEST MOUNTAINS/TRANS PECOS

CITY           SKY/WX    TMP DP  RH WIND       PRES   REMARKS
ALPINE         CLOUDY    31  31  99 NE6       30.32S VSB 1   WCI  25
DRYDEN           N/A     42  29  59 N13       30.30R
EL PASO        PTCLDY    36  31  82 S5        30.26R WCI  32
FORT STOCKTON  LGT SNOW  32  32 100 CALM      30.33R FOG
MARFA          CLOUDY    30  28  93 N8        30.25F WCI  23
PECOS          CLOUDY    35  33  91 SW3       30.33R
PRESIDIO       CLOUDY    43  34  71 N14G20    30.25R
$$

TXZ014-016-019-021>030-083-280500
TEXAS TECH WEST TEXAS MESONET/TEXAS PANHANDLE/NORTHERN SOUTH PLAINS

CITY           SKY/WX    TMP DP  RH WIND       PRES   REMARKS
ABERNATHY 5ENE   N/A     22  19  88 CALM      30.28R
AMARILLO 9NNE    N/A     16  10  79 SW1       30.26S
AMARILLO 7SSE    N/A     18  14  83 W3        30.25S
AMHERST 1NE      N/A     22  15  74 S1        30.26R
BOOTLEG 11WNW    N/A     15  12  86 SW9       30.23R WCI   3
CANADIAN 6E      N/A     22  12  66 NW6       30.26S WCI  14
CAPROCK CYN SP   N/A     23  17  80 W6        30.29S WCI  15
CHILDRESS 2NNE   N/A     32  14  48 N3        30.31R
CLARENDON 2WSW   N/A     20  10  65 CALM      30.27S
CLAUDE 12SW      N/A     27  14  56 W7        30.25R WCI  20
DIMMITT 2NE      N/A     16  12  82 NW5       30.23F WCI   9
FLOYDADA 2NNE    N/A     20  16  83 N1        30.27R
FRIONA 2NE       N/A     15  11  83 W5        30.24S WCI   7
GOODLETT 3W      N/A     31  18  57 CALM      30.32R
HART 3N          N/A     17  11  77 NW7       30.24S WCI   8
HEREFORD 2NW     N/A     16  12  82 SW2       30.23S
MCLEAN 1E        N/A     24  11  57 W3        30.25R
MEMPHIS 1NE      N/A     22  13  69 NW2       30.31R
MULESHOE 2SSW    N/A     16  12  86 W1        30.25R
OLTON 6S         N/A     22  15  72 CALM      30.25S
PALO DURO SP     N/A     22  13  67 W8        30.26S WCI  12
PAMPA 2E         N/A     18  10  71 SW3       30.25R
PLAINVIEW 1S     N/A     21  15  77 CALM      30.25S
SILVERTON 7ESE   N/A     19  11  71 CALM      30.28R
TULIA 2ENE       N/A     19  13  77 W2        30.25S
TURKEY 2WSW      N/A     30  16  56 CALM      30.29S
UMBARGER 3NNE    N/A     12   7  81 SW2       30.24S
$$

TXZ033>036-039>041-045>048-280500
TEXAS TECH WEST TEXAS MESONET/SOUTH PLAINS

CITY           SKY/WX    TMP DP  RH WIND       PRES   REMARKS
AIKEN 3WSW       N/A     21  14  74 NE2       30.27S
ANDREWS 2NE      N/A     29  25  84 S3        30.29S
ANTON 6SSW       N/A     24  20  86 S3        30.27R
BROWNFIELD 2S    N/A     27  24  91 W2        30.27F
DENVR CTY 7WNW   N/A     28  24  86 SW5       30.26S WCI  22
GAIL 2ESE        N/A     29  21  72 N1        30.30S
LAMESA 2SE       N/A     25  23  92 CALM      30.29S
LEVELLAND 4S     N/A     24  20  84 SW1       30.27R
LUBBOCK 3WNW     N/A     24  20  85 SE1       30.28S
MORTON 1ENE      N/A     19  11  68 S1        30.26R
ODONNELL 1N      N/A     26  23  87 CALM      30.28S
PLAINS 3N        N/A     27  22  80 S2        30.27R
RALLS 1SE        N/A     20  16  84 CALM      30.29S
REESE CENTER     N/A     26  20  79 CALM      30.27R
SEAGRAVES 1SW    N/A     27  25  94 W2        30.27F
SEMINOLE 2NNE    N/A     27  24  89 SW1       30.28R
SLATON 2NE       N/A     27  21  76 E1        30.28F
SNYDER 3E        N/A     29  21  72 NE6       30.30S WCI  23
SUNDOWN 8SW      N/A     23  18  81 SW5       30.26S WCI  16
TAHOKA 3NNE      N/A     25  20  82 CALM      30.27F
WOLFFORTH 6SSW   N/A     27  27  99 CALM      30.28R
$$

TXZ031-032-036>038-042>044-280500-
TEXAS TECH WEST TEXAS MESONET/ROLLING PLAINS

CITY           SKY/WX    TMP DP  RH WIND       PRES   REMARKS
ASPERMONT 3NE    N/A     28  23  82 SW2       30.33S
FLUVANNA 3WNW    N/A     27  20  75 E5        30.29S WCI  22
GRAHAM 5SSW      N/A     29  20  68 CALM      30.29S
GUTHRIE 10WSW    N/A     27  19  72 SW1       30.31S
HASKELL 1NW      N/A     29  26  89 CALM      30.33F
JAYTON 1SSE      N/A     27  21  79 SW3       30.32S
KNOX CITY 3NW    N/A     28  25  87 SW2       30.35S
LK A HENRY 1NW   N/A     28  22  78 S5        30.31S WCI  22
NORTHFIELD 1S    N/A     28  17  63 SW3       30.31S
ODELL 4ENE       N/A     28  23  82 SE3       30.35R
PADUCAH 10SW     N/A     29  19  65 SW5       30.31S WCI  24
POST 1NE         N/A     29  20  70 S2        30.30S
SEYMOUR 3NW      N/A     26  25  95 W3        30.34F
SPUR 1W          N/A     23  20  88 NW5       30.30S WCI  17
WHITE RVR 6NE    N/A     29  18  65 NW5       30.29S WCI  23
$$

TXZ052-054-060>062-072-078-127-140-154-169-280500-
TEXAS TECH WEST TEXAS MESONET/PERMIAN BASIN/
CONCHO VALLEY/BIG COUNTRY/EDWARDS PLATEAU

CITY           SKY/WX    TMP DP  RH WIND       PRES   REMARKS
COYANOSA 2N      N/A     36  32  86 SE1       30.34R
JUNCTION 1SSW    N/A     36  29  76 NE7       30.28R WCI  30
MERTZON 3NNE     N/A     33  24  71 N6        30.31S WCI  27
SAN ANGELO 7NW   N/A     32  24  71 N2        30.32R
STRLNG CT 4WSW   N/A     32  25  76 N5        30.31F WCI  27
ST LAWRNCE 5SW   N/A     30  24  78 NW2       30.31R
SWEETWATR 11SW   N/A     27  23  84 N5        30.30F WCI  22
WALL 1E          N/A     32  26  76 N7        30.31S WCI  26
$$

TXZ055-058-074-075-080-082-280500-
TEXAS TECH WEST TEXAS MESONET/FAR WEST/SOUTHWEST MOUNTAINS/TRANS PECOS

CITY           SKY/WX    TMP DP  RH WIND       PRES   REMARKS
PRSMN GAP BBNP   N/A     43  31  62 NE16      30.28R
GUADLPE MTN NP   N/A     24  23  96 W3        30.23F
$$



USA.gov is the U.S. government's official web portal to all federal, state and local government web resources and services.